| time (UTC) | temp C | wind direction | speed KPH | gust KPH | rain 1hr cm | rain 24hr cm | rain mn cm | humidity % | barometer mb |
| 20260508135654 | 9 | 338 | 17.7 | 25.7 | 0.00 | 0.10 | 0.03 | 73 | 1004.5 |
| 20260508135143 | 9 | 248 | 8.0 | 37.0 | 0.00 | 0.10 | 0.03 | 73 | 1004.4 |
| 20260508134633 | 9 | 270 | 9.7 | 37.0 | 0.00 | 0.10 | 0.03 | 73 | 1004.4 |
| 20260508134123 | 9 | 293 | 8.0 | 32.2 | 0.00 | 0.10 | 0.03 | 74 | 1004.4 |
| 20260508133612 | 8 | 270 | 9.7 | 32.2 | 0.00 | 0.10 | 0.03 | 75 | 1004.6 |
| 20260508133321 | 8 | 225 | 11.3 | 29.0 | 0.00 | 0.10 | 0.03 | 75 | 1004.5 |
| 20260508132816 | 8 | 270 | 9.7 | 20.9 | 0.00 | 0.10 | 0.03 | 76 | 1004.5 |
| 20260508132048 | 8 | 113 | 8.0 | 27.4 | 0.00 | 0.10 | 0.03 | 77 | 1004.5 |
| 20260508131543 | 8 | 270 | 16.1 | 27.4 | 0.00 | 0.10 | 0.03 | 77 | 1004.1 |
| 20260508131253 | 8 | 225 | 6.4 | 25.7 | 0.00 | 0.10 | 0.03 | 78 | 1004.3 |
| 20260508130736 | 8 | 203 | 14.5 | 25.7 | 0.00 | 0.10 | 0.03 | 78 | 1004.4 |
| 20260508130003 | 8 | 293 | 9.7 | 24.1 | 0.00 | 0.10 | 0.03 | 80 | 1004.6 |
| 20260508125452 | 8 | 293 | 3.2 | 22.5 | 0.00 | 0.10 | 0.03 | 79 | 1004.3 |
| 20260508124942 | 8 | 248 | 8.0 | 22.5 | 0.00 | 0.10 | 0.03 | 79 | 1004.1 |
| 20260508124659 | 8 | 293 | 8.0 | 22.5 | 0.00 | 0.10 | 0.03 | 79 | 1004.3 |
| 20260508123921 | 8 | 0 | 6.4 | 22.5 | 0.00 | 0.10 | 0.03 | 79 | 1004.2 |
| 20260508123412 | 8 | 248 | 12.9 | 27.4 | 0.00 | 0.10 | 0.03 | 79 | 1004.2 |
| 20260508122902 | 8 | 248 | 8.0 | 27.4 | 0.00 | 0.10 | 0.03 | 80 | 1004.5 |
| 20260508122352 | 8 | 293 | 4.8 | 25.7 | 0.00 | 0.10 | 0.03 | 80 | 1004.1 |
| 20260508122106 | 7 | 293 | 11.3 | 25.7 | 0.00 | 0.10 | 0.03 | 81 | 1003.9 |
| 20260508121331 | 7 | 293 | 11.3 | 25.7 | 0.00 | 0.10 | 0.03 | 81 | 1003.7 |
| 20260508120821 | 7 | 248 | 8.0 | 25.7 | 0.00 | 0.10 | 0.03 | 81 | 1003.6 |
| 20260508120311 | 7 | 270 | 6.4 | 33.8 | 0.00 | 0.10 | 0.03 | 82 | 1003.7 |
| 20260508115800 | 7 | 248 | 4.8 | 33.8 | 0.00 | 0.10 | 0.03 | 82 | 1003.6 |
| 20260508115250 | 7 | 203 | 12.9 | 29.0 | 0.00 | 0.10 | 0.03 | 83 | 1003.6 |
| 20260508115010 | 7 | 315 | 14.5 | 29.0 | 0.00 | 0.10 | 0.03 | 83 | 1003.6 |
| 20260508114231 | 7 | 248 | 14.5 | 22.5 | 0.00 | 0.10 | 0.03 | 84 | 1003.2 |
| 20260508113720 | 7 | 293 | 11.3 | 27.4 | 0.00 | 0.10 | 0.03 | 85 | 1003.1 |
| 20260508113211 | 7 | 270 | 3.2 | 27.4 | 0.00 | 0.10 | 0.03 | 86 | 1003.5 |
| 20260508112700 | 7 | 293 | 16.1 | 27.4 | 0.00 | 0.10 | 0.03 | 86 | 1003.3 |
| 20260508112150 | 7 | 225 | 11.3 | 25.7 | 0.00 | 0.10 | 0.03 | 87 | 1002.9 |
| 20260508111640 | 7 | 203 | 11.3 | 25.7 | 0.00 | 0.10 | 0.03 | 87 | 1003.1 |
| 20260508111130 | 7 | 225 | 4.8 | 25.7 | 0.00 | 0.10 | 0.03 | 88 | 1003.0 |
| 20260508110620 | 7 | 270 | 8.0 | 29.0 | 0.00 | 0.10 | 0.03 | 88 | 1003.1 |
| 20260508110110 | 7 | 248 | 8.0 | 29.0 | 0.00 | 0.10 | 0.03 | 88 | 1003.1 |
| 20260508105600 | 7 | 248 | 6.4 | 20.9 | 0.00 | 0.10 | 0.03 | 88 | 1003.2 |
| 20260508105050 | 7 | 270 | 3.2 | 20.9 | 0.00 | 0.10 | 0.03 | 88 | 1003.0 |
| 20260508104806 | 7 | 248 | 6.4 | 17.7 | 0.00 | 0.10 | 0.03 | 89 | 1002.8 |
| 20260508104029 | 7 | 270 | 6.4 | 24.1 | 0.00 | 0.10 | 0.03 | 89 | 1002.8 |
| 20260508103746 | 7 | 293 | 12.9 | 24.1 | 0.00 | 0.10 | 0.03 | 89 | 1002.8 |
| 20260508102609 | 7 | 293 | 12.9 | 27.4 | 0.00 | 0.10 | 0.03 | 90 | 1002.6 |
| 20260508102059 | 7 | 293 | 12.9 | 27.4 | 0.00 | 0.10 | 0.03 | 90 | 1002.6 |
| 20260508101550 | 7 | 225 | 6.4 | 25.7 | 0.00 | 0.10 | 0.03 | 90 | 1002.7 |
| 20260508100529 | 7 | 338 | 3.2 | 20.9 | 0.00 | 0.10 | 0.03 | 90 | 1002.4 |
| 20260508100019 | 7 | 180 | 12.9 | 20.9 | 0.00 | 0.10 | 0.03 | 91 | 1002.4 |
| 20260508095509 | 7 | 248 | 6.4 | 20.9 | 0.00 | 0.10 | 0.03 | 91 | 1002.2 |
| 20260508094959 | 7 | 315 | 6.4 | 17.7 | 0.00 | 0.10 | 0.03 | 91 | 1002.2 |
| 20260508094449 | 7 | 270 | 6.4 | 17.7 | 0.00 | 0.10 | 0.03 | 92 | 1002.1 |
| 20260508093939 | 7 | 315 | 8.0 | 17.7 | 0.00 | 0.10 | 0.03 | 92 | 1001.8 |
| 20260508093429 | 7 | 270 | 6.4 | 27.4 | 0.00 | 0.10 | 0.03 | 92 | 1001.8 |
| 20260508092919 | 7 | 315 | 6.4 | 27.4 | 0.00 | 0.10 | 0.03 | 92 | 1001.7 |
| 20260508092408 | 7 | 225 | 6.4 | 20.9 | 0.00 | 0.10 | 0.03 | 92 | 1001.7 |
| 20260508091858 | 7 | 270 | 6.4 | 20.9 | 0.00 | 0.10 | 0.03 | 91 | 1001.7 |
| 20260508091347 | 7 | 248 | 11.3 | 20.9 | 0.00 | 0.10 | 0.03 | 90 | 1001.9 |
| 20260508090837 | 7 | 270 | 6.4 | 29.0 | 0.00 | 0.10 | 0.03 | 88 | 1001.6 |
| 20260508090328 | 7 | 0 | 8.0 | 29.0 | 0.00 | 0.10 | 0.03 | 86 | 1001.7 |
| 20260508085818 | 7 | 248 | 9.7 | 22.5 | 0.00 | 0.10 | 0.03 | 84 | 1001.5 |
| 20260508085307 | 7 | 293 | 6.4 | 25.7 | 0.00 | 0.10 | 0.03 | 84 | 1001.6 |
| 20260508084758 | 7 | 158 | 8.0 | 25.7 | 0.00 | 0.10 | 0.03 | 84 | 1001.5 |
| 20260508084247 | 7 | 248 | 6.4 | 25.7 | 0.00 | 0.10 | 0.03 | 85 | 1001.6 |
| 20260508083739 | 7 | 248 | 3.2 | 27.4 | 0.00 | 0.13 | 0.03 | 85 | 1001.6 |
| 20260508083447 | 7 | 270 | 12.9 | 27.4 | 0.00 | 0.13 | 0.03 | 84 | 1001.6 |
| 20260508082717 | 7 | 293 | 8.0 | 24.1 | 0.00 | 0.13 | 0.03 | 84 | 1001.5 |
| 20260508082206 | 7 | 90 | 11.3 | 29.0 | 0.00 | 0.13 | 0.03 | 83 | 1001.5 |
| 20260508081706 | 7 | 225 | 11.3 | 29.0 | 0.00 | 0.13 | 0.03 | 83 | 1001.6 |
| 20260508081403 | 7 | 225 | 12.9 | 17.7 | 0.00 | 0.13 | 0.03 | 83 | 1001.7 |
| 20260508080637 | 7 | 270 | 6.4 | 17.7 | 0.00 | 0.13 | 0.03 | 84 | 1001.8 |
| 20260508075617 | 7 | 248 | 6.4 | 22.5 | 0.00 | 0.13 | 0.03 | 84 | 1001.6 |
| 20260508075105 | 7 | 293 | 6.4 | 27.4 | 0.00 | 0.15 | 0.03 | 85 | 1001.5 |
| 20260508074556 | 7 | 225 | 12.9 | 27.4 | 0.00 | 0.15 | 0.03 | 86 | 1001.6 |
| 20260508074046 | 7 | 225 | 3.2 | 27.4 | 0.00 | 0.15 | 0.03 | 87 | 1001.7 |
| 20260508073535 | 7 | 293 | 9.7 | 25.7 | 0.00 | 0.18 | 0.03 | 87 | 1001.7 |
| 20260508073257 | 7 | 293 | 6.4 | 20.9 | 0.00 | 0.18 | 0.03 | 88 | 1001.9 |
| 20260508072516 | 7 | 23 | 6.4 | 27.4 | 0.00 | 0.18 | 0.03 | 88 | 1001.9 |
| 20260508072005 | 7 | 270 | 9.7 | 27.4 | 0.00 | 0.18 | 0.03 | 88 | 1001.7 |
| 20260508071455 | 7 | 293 | 6.4 | 22.5 | 0.00 | 0.18 | 0.03 | 88 | 1001.9 |
| 20260508070945 | 7 | 180 | 8.0 | 22.5 | 0.00 | 0.18 | 0.03 | 88 | 1002.0 |
| 20260508070435 | 7 | 248 | 6.4 | 17.7 | 0.00 | 0.18 | 0.03 | 89 | 1002.0 |
| 20260508065930 | 7 | 338 | 3.2 | 25.7 | 0.00 | 0.18 | 0.03 | 89 | 1001.9 |
| 20260508065414 | 7 | 180 | 11.3 | 25.7 | 0.00 | 0.23 | 0.03 | 89 | 1002.1 |
| 20260508064904 | 7 | 180 | 12.9 | 24.1 | 0.00 | 0.23 | 0.03 | 89 | 1002.1 |
| 20260508064354 | 7 | 293 | 8.0 | 25.7 | 0.00 | 0.23 | 0.03 | 89 | 1002.2 |
| 20260508063844 | 7 | 203 | 4.8 | 25.7 | 0.00 | 0.25 | 0.03 | 88 | 1002.2 |
| 20260508063334 | 8 | 248 | 8.0 | 32.2 | 0.00 | 0.25 | 0.03 | 87 | 1002.1 |
| 20260508062824 | 8 | 293 | 16.1 | 32.2 | 0.00 | 0.28 | 0.03 | 85 | 1002.1 |
| 20260508062534 | 8 | 293 | 9.7 | 25.7 | 0.00 | 0.30 | 0.03 | 84 | 1002.2 |
| 20260508061804 | 8 | 293 | 6.4 | 24.1 | 0.00 | 0.36 | 0.03 | 83 | 1002.4 |
| 20260508061253 | 8 | 338 | 9.7 | 20.9 | 0.00 | 0.38 | 0.03 | 83 | 1002.4 |
| 20260508060743 | 8 | 270 | 9.7 | 25.7 | 0.00 | 0.43 | 0.03 | 84 | 1002.3 |
| 20260508060234 | 8 | 225 | 8.0 | 25.7 | 0.00 | 0.48 | 0.03 | 84 | 1002.4 |
| 20260508055723 | 8 | 293 | 6.4 | 25.7 | 0.00 | 0.48 | 0.03 | 85 | 1002.2 |
| 20260508055434 | 8 | 248 | 6.4 | 25.7 | 0.00 | 0.48 | 0.03 | 85 | 1002.3 |
| 20260508054703 | 8 | 248 | 8.0 | 24.1 | 0.00 | 0.53 | 0.03 | 86 | 1002.3 |
| 20260508054153 | 8 | 293 | 8.0 | 24.1 | 0.00 | 0.53 | 0.03 | 87 | 1002.3 |
| 20260508053643 | 8 | 293 | 8.0 | 22.5 | 0.00 | 0.56 | 0.03 | 88 | 1002.3 |
| 20260508053138 | 8 | 293 | 6.4 | 22.5 | 0.00 | 0.58 | 0.03 | 89 | 1002.2 |
| 20260508052623 | 8 | 270 | 6.4 | 22.5 | 0.00 | 0.61 | 0.03 | 89 | 1002.2 |
| 20260508052112 | 8 | 225 | 4.8 | 25.7 | 0.00 | 0.61 | 0.03 | 90 | 1002.2 |
| 20260508051602 | 8 | 293 | 4.8 | 25.7 | 0.00 | 0.61 | 0.03 | 91 | 1002.1 |
| 20260508051052 | 8 | 270 | 9.7 | 24.1 | 0.00 | 0.61 | 0.03 | 92 | 1002.2 |
| 20260508050542 | 8 | 270 | 12.9 | 24.1 | 0.00 | 0.61 | 0.03 | 92 | 1002.2 |
| 20260508050253 | 8 | 315 | 6.4 | 20.9 | 0.00 | 0.61 | 0.03 | 93 | 1002.0 |
| 20260508045524 | 8 | 225 | 12.9 | 20.9 | 0.00 | 0.61 | 0.03 | 94 | 1002.1 |
| 20260508045012 | 8 | 248 | 4.8 | 17.7 | 0.00 | 0.61 | 0.03 | 94 | 1001.9 |
| 20260508044502 | 8 | 270 | 3.2 | 24.1 | 0.00 | 0.66 | 0.03 | 95 | 1001.9 |
| 20260508043952 | 8 | 270 | 12.9 | 24.1 | 0.00 | 0.74 | 0.03 | 95 | 1001.8 |
| 20260508043707 | 8 | 338 | 8.0 | 17.7 | 0.00 | 0.86 | 0.03 | 96 | 1001.9 |
| 20260508042932 | 8 | 180 | 6.4 | 20.9 | 0.00 | 1.09 | 0.03 | 96 | 1002.0 |
| 20260508042422 | 8 | 293 | 4.8 | 27.4 | 0.00 | 1.55 | 0.03 | 96 | 1001.9 |
| 20260508041911 | 8 | 315 | 8.0 | 27.4 | 0.00 | 2.11 | 0.03 | 97 | 1001.8 |
| 20260508041402 | 8 | 338 | 6.4 | 20.9 | 0.00 | 2.67 | 0.03 | 97 | 1001.7 |
| 20260508041108 | 8 | 248 | 6.4 | 22.5 | 0.00 | 2.67 | 0.03 | 97 | 1001.5 |
| 20260508040341 | 8 | 225 | 6.4 | 24.1 | 0.03 | 2.67 | 0.03 | 97 | 1001.8 |
| 20260508035831 | 8 | 248 | 8.0 | 24.1 | 0.03 | 2.82 | 0.03 | 97 | 1001.6 |
| 20260508035321 | 8 | 270 | 4.8 | 20.9 | 0.03 | 2.84 | 0.03 | 97 | 1001.7 |
| 20260508034812 | 8 | 270 | 9.7 | 22.5 | 0.03 | 2.92 | 0.03 | 97 | 1001.7 |
| 20260508034300 | 8 | 270 | 8.0 | 22.5 | 0.03 | 2.95 | 0.03 | 97 | 1001.6 |
| 20260508033750 | 8 | 270 | 8.0 | 22.5 | 0.03 | 2.95 | 0.03 | 97 | 1001.6 |
| 20260508033240 | 8 | 270 | 9.7 | 20.9 | 0.03 | 2.95 | 0.03 | 97 | 1001.6 |
| 20260508032730 | 8 | 270 | 4.8 | 20.9 | 0.03 | 2.95 | 0.03 | 97 | 1001.8 |
| 20260508032221 | 8 | 248 | 9.7 | 22.5 | 0.03 | 2.95 | 0.03 | 97 | 1001.7 |
| 20260508031710 | 8 | 225 | 8.0 | 22.5 | 0.03 | 2.95 | 0.03 | 97 | 1001.7 |
| 20260508031201 | 8 | 248 | 6.4 | 24.1 | 0.05 | 2.95 | 0.03 | 97 | 1001.3 |
| 20260508030913 | 8 | 248 | 12.9 | 24.1 | 0.03 | 2.92 | 0.03 | 97 | 1001.6 |
| 20260508030140 | 9 | 338 | 6.4 | 29.0 | 0.03 | 2.92 | 0.00 | 97 | 1001.4 |
| 20260508025854 | 9 | 248 | 11.3 | 29.0 | 0.03 | 2.92 | 2.92 | 97 | 1001.3 |
| 20260508025119 | 9 | 248 | 6.4 | 22.5 | 0.05 | 2.92 | 2.92 | 97 | 1001.4 |
| 20260508024618 | 9 | 270 | 6.4 | 22.5 | 0.05 | 2.92 | 2.92 | 97 | 1001.3 |
| 20260508023549 | 9 | 248 | 12.9 | 29.0 | 0.08 | 2.92 | 2.92 | 97 | 1001.3 |
| 20260508023038 | 9 | 248 | 12.9 | 27.4 | 0.08 | 2.92 | 2.92 | 97 | 1001.1 |
| 20260508022528 | 9 | 270 | 9.7 | 27.4 | 0.08 | 2.92 | 2.92 | 97 | 1001.3 |
| 20260508022019 | 9 | 248 | 12.9 | 24.1 | 0.08 | 2.92 | 2.92 | 97 | 1001.2 |
| 20260508021509 | 9 | 338 | 6.4 | 20.9 | 0.08 | 2.90 | 2.92 | 97 | 1001.2 |
| 20260508020958 | 9 | 270 | 9.7 | 25.7 | 0.08 | 2.90 | 2.90 | 97 | 1001.0 |
| 20260508020448 | 9 | 225 | 12.9 | 25.7 | 0.08 | 2.90 | 2.90 | 97 | 1001.3 |
| 20260508020158 | 9 | 225 | 11.3 | 24.1 | 0.08 | 2.90 | 2.90 | 97 | 1001.2 |
| 20260508015428 | 10 | 203 | 8.0 | 25.7 | 0.08 | 2.90 | 2.90 | 97 | 1001.4 |
| 20260508015137 | 10 | 248 | 6.4 | 25.7 | 0.05 | 2.87 | 2.87 | 97 | 1001.5 |
| 20260508014637 | 10 | 225 | 9.7 | 17.7 | 0.05 | 2.87 | 2.87 | 96 | 1001.5 |
| 20260508013858 | 10 | 248 | 6.4 | 20.9 | 0.03 | 2.84 | 2.84 | 96 | 1001.6 |
| 20260508013348 | 10 | 315 | 3.2 | 22.5 | 0.03 | 2.84 | 2.84 | 96 | 1001.6 |
| 20260508012840 | 10 | 248 | 6.4 | 22.5 | 0.03 | 2.84 | 2.84 | 96 | 1001.5 |
| 20260508012327 | 10 | 270 | 11.3 | 25.7 | 0.03 | 2.84 | 2.84 | 96 | 1001.6 |
| 20260508011817 | 10 | 270 | 9.7 | 25.7 | 0.00 | 2.84 | 2.84 | 95 | 1001.8 |
| 20260508011530 | 10 | 293 | 4.8 | 20.9 | 0.00 | 2.84 | 2.84 | 95 | 1001.9 |
| 20260508010757 | 10 | 270 | 9.7 | 20.9 | 0.00 | 2.84 | 2.84 | 94 | 1001.9 |
| 20260508010247 | 10 | 248 | 3.2 | 24.1 | 0.00 | 2.84 | 2.84 | 94 | 1002.1 |
| 20260508005737 | 10 | 248 | 6.4 | 24.1 | 0.00 | 2.84 | 2.84 | 94 | 1001.9 |
| 20260508005458 | 10 | 248 | 6.4 | 22.5 | 0.00 | 2.84 | 2.84 | 93 | 1001.8 |
| 20260508004716 | 10 | 248 | 9.7 | 24.1 | 0.00 | 2.84 | 2.84 | 92 | 1001.6 |
| 20260508004206 | 10 | 0 | 11.3 | 25.7 | 0.00 | 2.84 | 2.84 | 91 | 1001.8 |
| 20260508003657 | 11 | 203 | 6.4 | 25.7 | 0.00 | 2.84 | 2.84 | 90 | 1002.2 |
| 20260508003415 | 11 | 248 | 8.0 | 25.7 | 0.00 | 2.84 | 2.84 | 88 | 1002.2 |
| 20260508002636 | 11 | 270 | 9.7 | 29.0 | 0.00 | 2.84 | 2.84 | 87 | 1002.0 |
| 20260508002126 | 11 | 248 | 12.9 | 29.0 | 0.00 | 2.84 | 2.84 | 86 | 1001.9 |
| 20260508001617 | 11 | 225 | 8.0 | 24.1 | 0.00 | 2.84 | 2.84 | 85 | 1001.8 |
| 20260508001106 | 11 | 225 | 6.4 | 33.8 | 0.00 | 2.84 | 2.84 | 85 | 1001.8 |
| 20260508000815 | 11 | 248 | 11.3 | 33.8 | 0.00 | 2.84 | 2.84 | 84 | 1001.9 |
| 20260508000334 | 11 | 270 | 6.4 | 20.9 | 0.00 | 2.84 | 2.84 | 85 | 1001.8 |
| 20260507235536 | 11 | 203 | 9.7 | 20.9 | 0.00 | 2.84 | 2.84 | 84 | 1001.4 |
| 20260507235025 | 11 | 293 | 8.0 | 27.4 | 0.00 | 2.84 | 2.84 | 84 | 1001.7 |
| 20260507234515 | 11 | 248 | 12.9 | 27.4 | 0.00 | 2.84 | 2.84 | 84 | 1001.5 |
| 20260507234006 | 11 | 203 | 8.0 | 25.7 | 0.00 | 2.84 | 2.84 | 84 | 1001.5 |
| 20260507233456 | 11 | 248 | 6.4 | 27.4 | 0.00 | 2.84 | 2.84 | 84 | 1001.5 |
| 20260507233222 | 11 | 293 | 11.3 | 27.4 | 0.00 | 2.84 | 2.84 | 84 | 1001.8 |
| 20260507232434 | 12 | 270 | 4.8 | 24.1 | 0.00 | 2.84 | 2.84 | 85 | 1001.6 |
| 20260507231925 | 12 | 23 | 6.4 | 20.9 | 0.00 | 2.84 | 2.84 | 85 | 1001.7 |
| 20260507231645 | 12 | 270 | 11.3 | 20.9 | 0.00 | 2.84 | 2.84 | 86 | 1001.7 |
| 20260507230905 | 12 | 270 | 3.2 | 17.7 | 0.00 | 2.84 | 2.84 | 86 | 1001.9 |
| 20260507230355 | 11 | 270 | 11.3 | 17.7 | 0.00 | 2.84 | 2.84 | 87 | 1001.8 |
| 20260507225844 | 11 | 248 | 6.4 | 24.1 | 0.00 | 2.84 | 2.84 | 88 | 1001.9 |
| 20260507225334 | 11 | 248 | 9.7 | 24.1 | 0.00 | 2.84 | 2.84 | 88 | 1002.0 |
| 20260507225053 | 11 | 270 | 12.9 | 24.1 | 0.00 | 2.84 | 2.84 | 87 | 1002.2 |
| 20260507224532 | 12 | 293 | 4.8 | 24.1 | 0.00 | 2.84 | 2.84 | 87 | 1002.4 |
| 20260507224029 | 12 | 225 | 8.0 | 22.5 | 0.00 | 2.84 | 2.84 | 87 | 1002.4 |
| 20260507223254 | 12 | 293 | 6.4 | 22.5 | 0.00 | 2.84 | 2.84 | 86 | 1002.3 |
| 20260507222744 | 12 | 270 | 11.3 | 20.9 | 0.00 | 2.84 | 2.84 | 85 | 1002.1 |
| 20260507222500 | 12 | 225 | 11.3 | 22.5 | 0.00 | 2.84 | 2.84 | 85 | 1002.2 |
| 20260507221724 | 12 | 293 | 11.3 | 22.5 | 0.00 | 2.84 | 2.84 | 85 | 1001.8 |
| 20260507220703 | 12 | 270 | 3.2 | 20.9 | 0.00 | 2.84 | 2.84 | 84 | 1001.7 |
| 20260507220415 | 12 | 225 | 4.8 | 24.1 | 0.00 | 2.84 | 2.84 | 83 | 1001.7 |
| 20260507215642 | 12 | 315 | 12.9 | 24.1 | 0.00 | 2.84 | 2.84 | 82 | 1001.6 |
| 20260507215133 | 12 | 248 | 4.8 | 17.7 | 0.00 | 2.84 | 2.84 | 81 | 1001.4 |
| 20260507214622 | 12 | 225 | 3.2 | 17.7 | 0.00 | 2.84 | 2.84 | 81 | 1001.4 |
| 20260507214112 | 12 | 248 | 3.2 | 17.7 | 0.00 | 2.84 | 2.84 | 81 | 1001.4 |
| 20260507213603 | 12 | 270 | 6.4 | 20.9 | 0.00 | 2.84 | 2.84 | 81 | 1001.2 |
| 20260507213313 | 12 | 293 | 9.7 | 20.9 | 0.00 | 2.84 | 2.84 | 80 | 1001.3 |
| 20260507212542 | 12 | 315 | 6.4 | 17.7 | 0.00 | 2.84 | 2.84 | 80 | 1001.6 |
| 20260507212032 | 12 | 248 | 6.4 | 17.7 | 0.00 | 2.84 | 2.84 | 80 | 1001.6 |
| 20260507211531 | 13 | 270 | 3.2 | 17.7 | 0.00 | 2.84 | 2.84 | 79 | 1001.4 |
| 20260507211012 | 12 | 248 | 6.4 | 17.7 | 0.00 | 2.84 | 2.84 | 79 | 1001.6 |
| 20260507210502 | 13 | 293 | 8.0 | 22.5 | 0.00 | 2.84 | 2.84 | 78 | 1001.4 |
| 20260507205951 | 13 | 293 | 8.0 | 24.1 | 0.00 | 2.84 | 2.84 | 78 | 1001.4 |
| 20260507205441 | 13 | 225 | 4.8 | 24.1 | 0.00 | 2.84 | 2.84 | 78 | 1001.7 |
| 20260507204932 | 13 | 293 | 6.4 | 20.9 | 0.00 | 2.84 | 2.84 | 78 | 1001.6 |
| 20260507204421 | 13 | 293 | 6.4 | 20.9 | 0.00 | 2.84 | 2.84 | 78 | 1001.5 |
| 20260507203911 | 13 | 270 | 4.8 | 17.7 | 0.00 | 2.84 | 2.84 | 78 | 1001.6 |
| 20260507203401 | 13 | 293 | 6.4 | 17.7 | 0.00 | 2.84 | 2.84 | 77 | 1001.4 |
| 20260507202851 | 13 | 248 | 4.8 | 22.5 | 0.00 | 2.84 | 2.84 | 77 | 1001.2 |
| 20260507202557 | 13 | 248 | 6.4 | 27.4 | 0.00 | 2.84 | 2.84 | 76 | 1001.1 |
| 20260507201831 | 13 | 203 | 8.0 | 27.4 | 0.00 | 2.84 | 2.84 | 76 | 1001.1 |
| 20260507201321 | 13 | 225 | 11.3 | 22.5 | 0.00 | 2.84 | 2.84 | 75 | 1001.2 |
| 20260507200811 | 13 | 248 | 6.4 | 22.5 | 0.00 | 2.84 | 2.84 | 75 | 1000.9 |
| 20260507200300 | 13 | 315 | 6.4 | 20.9 | 0.00 | 2.84 | 2.84 | 75 | 1000.2 |
| 20260507195752 | 13 | 270 | 8.0 | 17.7 | 0.00 | 2.84 | 2.84 | 76 | 999.9 |
| 20260507195500 | 13 | 270 | 4.8 | 20.9 | 0.00 | 2.84 | 2.84 | 76 | 999.6 |
| 20260507194730 | 13 | 248 | 6.4 | 20.9 | 0.00 | 2.84 | 2.84 | 77 | 999.7 |
| 20260507194221 | 13 | 248 | 6.4 | 17.7 | 0.00 | 2.84 | 2.84 | 77 | 999.8 |
| 20260507193710 | 13 | 270 | 6.4 | 24.1 | 0.00 | 2.84 | 2.84 | 77 | 999.6 |
| 20260507193200 | 13 | 225 | 4.8 | 24.1 | 0.00 | 2.84 | 2.84 | 77 | 1000.0 |
| 20260507192649 | 13 | 270 | 4.8 | 20.9 | 0.00 | 2.84 | 2.84 | 77 | 999.6 |
| 20260507192140 | 13 | 293 | 8.0 | 20.9 | 0.00 | 2.84 | 2.84 | 77 | 999.8 |
| 20260507191849 | 14 | 270 | 6.4 | 20.9 | 0.00 | 2.84 | 2.84 | 77 | 999.9 |
| 20260507191119 | 14 | 248 | 3.2 | 14.5 | 0.00 | 2.84 | 2.84 | 77 | 1000.4 |
| 20260507190609 | 14 | 293 | 3.2 | 14.5 | 0.00 | 2.84 | 2.84 | 77 | 1000.7 |
| 20260507190059 | 14 | 293 | 3.2 | 22.5 | 0.00 | 2.84 | 2.84 | 78 | 1001.0 |
| 20260507185549 | 14 | 315 | 3.2 | 24.1 | 0.00 | 2.84 | 2.84 | 78 | 1001.5 |
| 20260507185039 | 14 | 293 | 6.4 | 24.1 | 0.00 | 2.84 | 2.84 | 77 | 1001.0 |
| 20260507184529 | 14 | 293 | 3.2 | 22.5 | 0.00 | 2.84 | 2.84 | 77 | 1001.7 |
| 20260507184019 | 14 | 293 | 3.2 | 20.9 | 0.00 | 2.84 | 2.84 | 77 | 1001.5 |
| 20260507183730 | 14 | 248 | 6.4 | 17.7 | 0.00 | 2.84 | 2.84 | 77 | 1001.8 |
| 20260507183004 | 14 | 225 | 9.7 | 25.7 | 0.00 | 2.84 | 2.84 | 77 | 1001.5 |
| 20260507182448 | 14 | 225 | 6.4 | 32.2 | 0.00 | 2.84 | 2.84 | 77 | 1001.8 |
| 20260507181939 | 14 | 270 | 11.3 | 32.2 | 0.00 | 2.84 | 2.84 | 78 | 1002.2 |
| 20260507181428 | 14 | 315 | 9.7 | 17.7 | 0.00 | 2.84 | 2.84 | 78 | 1002.6 |
| 20260507180918 | 14 | 90 | 6.4 | 17.7 | 0.00 | 2.84 | 2.84 | 78 | 1002.9 |
| 20260507180408 | 14 | 248 | 4.8 | 24.1 | 0.00 | 2.84 | 2.84 | 79 | 1003.2 |
| 20260507175858 | 14 | 248 | 6.4 | 24.1 | 0.00 | 2.84 | 2.84 | 80 | 1003.2 |
| 20260507175347 | 14 | 270 | 6.4 | 17.7 | 0.00 | 2.84 | 2.84 | 79 | 1003.0 |
| 20260507174839 | 13 | 225 | 6.4 | 14.5 | 0.00 | 2.84 | 2.84 | 80 | 1002.7 |
| 20260507174327 | 13 | 315 | 3.2 | 12.9 | 0.00 | 2.84 | 2.84 | 81 | 1002.2 |
| 20260507173817 | 13 | 270 | 3.2 | 12.9 | 0.00 | 2.84 | 2.84 | 81 | 1002.1 |
| 20260507173525 | 13 | 248 | 3.2 | 12.9 | 0.00 | 2.84 | 2.84 | 81 | 1001.8 |
| 20260507172757 | 13 | 45 | 3.2 | 12.9 | 0.00 | 2.84 | 2.84 | 81 | 1001.2 |
| 20260507172510 | 13 | 270 | 4.8 | 11.3 | 0.00 | 2.84 | 2.84 | 81 | 1001.0 |
| 20260507171736 | 13 | 158 | 3.2 | 11.3 | 0.00 | 2.84 | 2.84 | 81 | 1000.9 |
| 20260507171226 | 13 | 248 | 4.8 | 17.7 | 0.00 | 2.84 | 2.84 | 80 | 1001.2 |
| 20260507170716 | 13 | 293 | 3.2 | 17.7 | 0.00 | 2.84 | 2.84 | 80 | 1001.8 |
| 20260507170206 | 13 | 248 | 4.8 | 17.7 | 0.00 | 2.84 | 2.84 | 80 | 1001.8 |
| 20260507165656 | 13 | 225 | 6.4 | 17.7 | 0.00 | 2.84 | 2.84 | 80 | 1002.0 |
| 20260507165147 | 13 | 225 | 6.4 | 17.7 | 0.00 | 2.84 | 2.84 | 81 | 1002.5 |
| 20260507164637 | 13 | 225 | 6.4 | 17.7 | 0.00 | 2.84 | 2.84 | 81 | 1002.7 |
| 20260507164347 | 13 | 293 | 3.2 | 20.9 | 0.00 | 2.84 | 2.84 | 81 | 1003.0 |
| 20260507163616 | 14 | 293 | 6.4 | 22.5 | 0.00 | 2.84 | 2.84 | 81 | 1003.1 |
| 20260507163106 | 14 | 203 | 8.0 | 22.5 | 0.00 | 2.84 | 2.84 | 81 | 1002.9 |
| 20260507162556 | 14 | 270 | 8.0 | 27.4 | 0.00 | 2.84 | 2.84 | 81 | 1003.3 |
| 20260507162046 | 14 | 293 | 8.0 | 27.4 | 0.00 | 2.84 | 2.84 | 81 | 1002.5 |
| 20260507161755 | 14 | 248 | 6.4 | 24.1 | 0.00 | 2.84 | 2.84 | 82 | 1001.8 |
| 20260507161025 | 14 | 248 | 6.4 | 24.1 | 0.00 | 2.84 | 2.84 | 83 | 1001.5 |
| 20260507160515 | 14 | 270 | 6.4 | 14.5 | 0.00 | 2.84 | 2.84 | 84 | 1001.2 |
| 20260507160005 | 15 | 338 | 4.8 | 14.5 | 0.00 | 2.84 | 2.84 | 86 | 1001.1 |
| 20260507155455 | 15 | 225 | 6.4 | 14.5 | 0.00 | 2.84 | 2.84 | 85 | 1001.2 |
| 20260507155206 | 15 | 248 | 6.4 | 14.5 | 0.00 | 2.84 | 2.84 | 85 | 1001.5 |
| 20260507154442 | 15 | 293 | 3.2 | 14.5 | 0.00 | 2.84 | 2.84 | 85 | 1001.3 |
| 20260507153924 | 15 | 203 | 8.0 | 14.5 | 0.00 | 2.84 | 2.84 | 85 | 1001.9 |
| 20260507153633 | 15 | 315 | 4.8 | 14.5 | 0.00 | 2.84 | 2.84 | 85 | 1002.0 |
| 20260507152904 | 15 | 270 | 3.2 | 14.5 | 0.00 | 2.84 | 2.84 | 84 | 1002.0 |
| 20260507152354 | 15 | 203 | 6.4 | 14.5 | 0.00 | 2.84 | 2.84 | 84 | 1001.4 |
| 20260507151844 | 15 | 203 | 9.7 | 17.7 | 0.00 | 2.84 | 2.84 | 85 | 1001.4 |
| 20260507151334 | 14 | 135 | 3.2 | 17.7 | 0.00 | 2.84 | 2.84 | 85 | 1001.7 |
| 20260507150824 | 14 | 225 | 6.4 | 17.7 | 0.00 | 2.84 | 2.84 | 86 | 1002.0 |
| 20260507150314 | 15 | 270 | 4.8 | 17.7 | 0.00 | 2.84 | 2.84 | 87 | 1001.8 |
| 20260507145804 | 15 | 270 | 8.0 | 17.7 | 0.00 | 2.84 | 2.84 | 87 | 1001.9 |
| 20260507145511 | 15 | 203 | 8.0 | 20.9 | 0.00 | 2.84 | 2.84 | 89 | 1002.5 |
| 20260507144743 | 15 | 248 | 6.4 | 20.9 | 0.00 | 2.84 | 2.84 | 89 | 1002.5 |
| 20260507144234 | 15 | 270 | 3.2 | 17.7 | 0.00 | 2.84 | 2.84 | 88 | 1002.4 |
| 20260507143724 | 15 | 293 | 4.8 | 9.7 | 0.00 | 2.84 | 2.84 | 89 | 1002.1 |
| 20260507143213 | 15 | 158 | 0.0 | 12.9 | 0.00 | 2.84 | 2.84 | 89 | 1001.3 |
| 20260507142703 | 15 | 225 | 0.0 | 12.9 | 0.00 | 2.84 | 2.84 | 88 | 1001.3 |
| 20260507142423 | 15 | 248 | 6.4 | 12.9 | 0.00 | 2.84 | 2.84 | 88 | 1001.8 |
| 20260507141643 | 15 | 248 | 4.8 | 9.7 | 0.00 | 2.84 | 2.84 | 88 | 1001.4 |
| 20260507141351 | 15 | 248 | 0.0 | 11.3 | 0.00 | 2.84 | 2.84 | 88 | 1001.0 |
| 20260507140625 | 15 | 248 | 1.6 | 12.9 | 0.00 | 2.84 | 2.84 | 88 | 1001.3 |
| 20260507140337 | 15 | 113 | 3.2 | 12.9 | 0.00 | 2.84 | 2.84 | 88 | 1001.6 |